TIME,DELAY(SENSOR),PRES,T(CTD),SAL,OXYGEN,RAWTEMP,T(OPTODE),TCPHASE,FLUOR,BETA(BETA700),BETA(BETA412),BETA(BETA440),CDOM,C(CSC),ED(ED412.40),ED(ED444.00),ED(ED489.70),ED(ED554.30),LU(LU411.80),LU(LU443.40),LU(LU489.60),LU(LU554.10),COMP,TILTX,TILTX(TILTY),CHECK
1356211517,5806,497.5499877929687500,6.1553001403808590,34.1500015258789060,65.2988510131836000,613.3292846679688000,6.1528239250183105,50.8963508605957000,52,103,89,81,78,15146,2147750226,2147421138,2148006829,2147874185,2147631881,2147071817,2148254646,2147200795,1349,4,13,5808
1356211663,5809,486.1499938964844000,6.4647002220153810,34.1423988342285160,70.0191879272461000,604.4680175781250000,6.4398398399353030,50.1777915954589840,51,104,86,80,80,15145,2147746614,2147421586,2148003776,2147873645,2147635136,2147072585,2148245632,2147199341,1116,4,13,15703
1356211784,5806,475.3999938964844000,6.7416000366210940,34.1319999694824200,76.9713287353515600,595.5435180664062000,6.7281360626220700,49.2026710510253900,51,104,87,81,79,15145,2147748397,2147423826,2148008292,2147873526,2147631021,2147077650,2148244242,2147200347,520,4,13,63817
1356211906,5813,464.2200012207031000,7.1044001579284670,34.1405982971191400,82.6869583129882800,584.5750122070312000,7.0814318656921390,48.3689308166503900,51,102,90,80,77,15143,2147743917,2147421942,2148006144,2147871533,2147628406,2147078262,2148245568,2147199168,440,4,13,50113
1356212026,5805,452.6099853515625000,7.2671999931335450,34.1376991271972660,87.2096481323242200,579.6259155273438000,7.2404799461364750,47.7754402160644500,51,104,91,81,79,15143,2147747757,2147423506,2148005860,2147873600,2147626276,2147079936,2148243949,2147202614,493,4,12,51758
1356212136,5809,441.7200012207031000,7.3835000991821290,34.1320991516113300,93.2180175781250000,575.4080810546875000,7.3758530616760250,47.0405807495117200,51,103,88,79,77,15142,2147745947,2147423725,2148005184,2147871131,2147627099,2147082925,2148236379,2147202633,953,4,12,65454
1356212248,5808,430.9500122070312500,7.4668002128601070,34.1202011108398440,97.7275772094726600,573.0698852539062000,7.4508318901062010,46.5146484375000000,52,103,91,80,79,15141,2147743323,2147424155,2148003547,2147873636,2147628937,2147078363,2148239533,2147198144,708,4,13,42800
1356212357,5808,420.7000122070312500,7.7396998405456540,34.1244010925293000,105.0447006225586000,564.7664794921875000,7.7167029380798340,45.6111602783203100,51,104,87,80,77,15140,2147743277,2147421732,2148004973,2147873298,2147624393,2147082441,2148237403,2147204882,925,4,13,42068
1356212478,5808,409.6799926757812500,7.9955000877380370,34.1152992248535160,115.5215988159179700,556.6953125000000000,7.9745750427246090,44.4270095825195300,50,103,88,81,76,15141,2147743131,2147422902,2148003547,2147872512,2147625170,2147089718,2148237549,2147202861,1231,4,13,28200
1356212601,5809,398.3699951171875000,8.2833995819091800,34.1162986755371100,123.0233001708984400,547.6126708984375000,8.2641010284423830,43.5563392639160160,51,105,92,81,76,15141,2147740644,2147421632,2148001353,2147872045,2147623634,2147087350,2148232384,2147199716,1347,4,13,719
1356212722,5810,386.9899902343750000,8.5062999725341800,34.1166992187500000,132.9089050292968800,540.5698852539062000,8.4881381988525390,42.5306892395019500,51,106,88,80,75,15138,2147739894,2147421083,2148003739,2147873462,2147621915,2147089216,2148227273,2147201280,1983,4,13,17458
1356212844,5806,375.9800109863281000,8.6103000640869140,34.1142997741699200,138.6038970947265600,537.1796264648438000,8.5958442687988280,41.9733886718750000,50,105,89,80,75,15139,2147739904,2147424292,2148003008,2147871707,2147617536,2147090523,2148232429,2147200832,817,4,13,14327
1356212964,5808,365.6300048828125000,8.7784004211425780,34.1077995300293000,145.4788970947265600,531.9298706054688000,8.7624435424804690,41.2999305725097660,50,104,88,80,74,15140,2147738304,2147419730,2148002459,2147872448,2147618678,2147088859,2148228352,2147199625,3182,4,13,23501
1356213107,5807,354.3900146484375000,9.1024999618530270,34.1048011779785160,153.9134063720703000,521.8621215820312000,9.0813474655151370,40.4389305114746100,50,105,90,79,74,15142,2147735744,2147422418,2148001956,2147871680,2147618752,2147090304,2148227702,2147202761,2716,4,13,7205
1356213252,5806,344.0400085449219000,9.3486995697021480,34.1072998046875000,162.5350036621093800,513.5410156250000000,9.3443460464477540,39.6255302429199200,50,110,90,80,74,15140,2147737197,2147423936,2148003355,2147869970,2147613796,2147093476,2148227017,2147199451,2515,4,13,42181
1356213416,5808,333.1900024414062500,9.7256002426147460,34.1114006042480500,175.1656951904297000,501.6476135253906000,9.7193784713745120,38.4956398010253900,50,106,88,80,72,15142,2147735689,2147427172,2148003026,2147869897,2147618313,2147093641,2148228068,2147199305,1552,3,13,63420
1356213561,5808,321.5000000000000000,9.9942998886108400,34.1162986755371100,180.6573944091797000,492.8866882324219000,9.9949979782104500,37.9626808166503900,49,104,89,81,73,15138,2147733988,2147422281,2148001142,2147869906,2147615954,2147099821,2148224356,2147200594,1642,4,13,58584
1356213681,5806,310.7399902343750000,10.3802995681762700,34.1241989135742200,186.0941925048828000,480.8117980957031000,10.3740301132202150,37.3923301696777340,49,108,86,81,72,15138,2147736649,2147425014,2148007707,2147873609,2147614217,2147106806,2148224978,2147204233,2188,4,13,40191
1356213814,5810,299.6700134277344000,10.8758001327514650,34.1347007751464840,191.9391021728515600,464.9318847656250000,10.8710699081420900,36.7444190979003900,49,107,86,82,71,15140,2147733229,2147425261,2148016740,2147873472,2147614061,2147102052,2148229321,2147205056,2543,4,13,40535
1356213945,5811,288.7900085449219000,11.3414001464843750,34.1481018066406250,195.6822967529297000,450.2077026367187500,11.3305702209472660,36.2647514343261700,49,106,87,79,70,15141,2147731766,2147427309,2148020452,2147871698,2147606061,2147106688,2148224429,2147203227,3220,3,13,26942
1356214089,5811,277.3699951171875000,11.7609996795654300,34.1581993103027340,199.1441955566406200,435.7987976074219000,11.7790403366088870,35.8154106140136700,48,105,88,80,69,15139,2147734637,2147431396,2148027072,2147873490,2147605302,2147111268,2148226742,2147205312,2399,3,14,56876
1356214231,5806,266.1799926757812500,12.0394001007080080,34.1673011779785160,201.2424011230468800,427.9025878906250000,12.0243301391601560,35.5597801208496100,49,106,83,80,69,15140,2147728036,2147432402,2148045248,2147871670,2147604013,2147114331,2148231021,2147206601,788,3,13,21326
1356214373,5808,255.3899993896484400,12.5100002288818360,34.1972999572753900,202.9013061523437500,412.5534057617187500,12.5002498626708980,35.2156715393066400,49,106,88,79,69,15139,2147729024,2147439698,2148064941,2147874642,2147601883,2147123913,2148239771,2147208237,684,3,13,465
1356214506,5808,244.2299957275390600,12.9979000091552730,34.2347984313964840,205.0290069580078000,394.2703857421875000,13.0656900405883790,34.8024101257324200,50,106,86,80,68,15138,2147724909,2147445586,2148076205,2147871936,2147601298,2147129307,2148241728,2147205997,57,4,13,50592
1356214626,5808,233.1799926757812500,13.8683996200561520,34.3162994384765600,209.2541961669922000,368.3312072753906000,13.8655300140380860,34.1565704345703100,49,103,86,81,68,15140,2147722523,2147461476,2148123913,2147873389,2147597494,2147143552,2148265435,2147209261,795,3,14,25969
1356214748,5808,221.8500061035156200,14.3344001770019530,34.3613014221191400,211.6316070556640600,352.1783142089844000,14.3623600006103520,33.7765007019043000,49,104,84,80,68,15135,2147725604,2147485476,2148189522,2147872301,2147594368,2147162605,2148287104,2147214848,2138,3,14,64651
1356214868,5806,211.0399932861328000,15.0943002700805660,34.4247016906738300,211.1304931640625000,328.7109069824219000,15.0827302932739260,33.4552993774414060,49,103,87,81,67,15135,2147731510,2147523282,2148283995,2147874057,2147593179,2147186249,2148329472,2147218331,2849,4,14,32994
1356214999,5809,200.5800018310547000,15.6471996307373050,34.4819984436035160,211.2030029296875000,309.7922973632812500,15.6624402999877930,33.1733703613281250,49,103,89,80,66,15136,2147730870,2147562468,2148368310,2147875126,2147591762,2147215872,2148371428,2147220790,320,3,14,38149
1356215074,5806,195.5200042724609400,16.1823005676269530,34.5390014648437500,210.5626983642578000,293.4288940429687500,16.1632404327392580,32.9716987609863300,49,102,88,80,66,15130,2147735789,2147589138,2148424667,2147872201,2147587931,2147229961,2148386102,2147224667,3530,3,15,54531
1356215128,5807,192.5299987792968800,16.5356006622314450,34.5829010009765600,210.7366027832031200,282.3782043457031000,16.5011901855468750,32.8030204772949200,49,104,87,79,66,15135,2147743296,2147643318,2148572214,2147872475,2147591268,2147262747,2148460187,2147226404,3320,3,14,27514
1356215204,5810,188.5000000000000000,16.6100997924804700,34.5951004028320300,211.6165924072265600,278.6960144042969000,16.6137599945068360,32.7008705139160160,49,103,87,80,67,15128,2147751378,2147671433,2148632365,2147872932,2147591817,2147281545,2148488576,2147229696,2354,2,15,25410
1356215280,5809,184.4600067138672000,17.0750999450683600,34.6478996276855500,211.1940002441406200,265.7817993164062500,17.0084304809570300,32.5402488708496100,49,104,88,80,66,15130,2147746825,2147645330,2148545088,2147874788,2147590500,2147273536,2148447954,2147227163,1500,3,14,22926
1356215358,5808,180.6199951171875000,17.4979991912841800,34.7047996520996100,210.8827972412109400,250.6687927246093800,17.4701194763183600,32.3441810607910160,50,103,86,79,64,15132,2147762368,2147728329,2148735917,2147871533,2147592850,2147323748,2148535360,2147231094,428,3,15,37710
1356215445,5806,176.3099975585937500,17.6828002929687500,34.7318992614746100,212.0688018798828000,244.4586029052734400,17.6597900390625000,32.1912803649902340,50,103,87,80,66,15131,2147775323,2147795236,2148876352,2147873609,2147597476,2147369636,2148606116,2147241746,3048,3,15,12243
1356215521,5806,172.3999938964843800,17.9710998535156250,34.7767982482910160,212.2127075195312500,234.3220062255859400,17.9693508148193360,32.0418586730957000,50,102,87,80,65,15127,2147796132,2147859492,2149003117,2147876416,2147608054,2147403346,2148664448,2147245851,287,2,15,44540
1356215597,5807,168.8899993896484400,18.2994995117187500,34.8189010620117200,212.9418029785156200,225.2648010253906200,18.2459392547607420,31.8762702941894530,50,104,87,80,64,15127,2147809563,2147904640,2149082450,2147874358,2147609883,2147432804,2148705636,2147253074,1148,3,15,52287
1356215697,5805,165.1600036621093800,18.8208007812500000,34.8923988342285160,213.2872009277343800,207.1605072021484400,18.7988491058349600,31.6080608367919920,50,103,87,79,64,15128,2147829376,2147973833,2149224420,2147876077,2147619035,2147482358,2148774345,2147253430,851,3,15,29781
1356215861,5808,161.6399993896484400,19.3222007751464840,34.9658012390136700,215.8222961425781200,190.6535034179687500,19.3031406402587900,31.2472305297851560,51,103,87,80,64,15124,2147815689,2147882834,2148970733,2147877723,2147608384,2147439643,2148648310,2147243483,498,2,15,26408
1356216046,5809,156.8699951171875000,19.5888004302978500,35.0082015991210940,216.7588958740234400,181.7306976318359400,19.5758399963378900,31.0769805908203120,53,105,86,80,63,15119,2147827611,2147904201,2148994304,2147876553,2147615862,2147452726,2148661019,2147244406,467,2,15,13215
1356216144,5809,152.3699951171875000,19.6396999359130860,35.0157012939453100,217.3787994384765600,179.7644958496093800,19.6359500885009770,31.0177497863769530,55,102,86,81,64,15113,2147873353,2148056292,2149312146,2147877339,2147631725,2147548150,2148819894,2147258093,3090,2,15,632
1356216231,5805,148.4400024414062500,19.6525001525878900,35.0147018432617200,217.5276031494140600,179.1143951416015600,19.6558208465576170,31.0011100769042970,52,106,89,80,63,15119,2147909714,2148154733,2149516662,2147880100,2147650331,2147612306,2148919478,2147264740,2627,2,15,36141
1356216321,5810,144.6300048828125000,19.8866004943847660,35.0443000793457000,217.4425048828125000,172.8618011474609400,19.8469905853271500,30.9217395782470700,54,104,86,82,65,15118,2147938313,2148205686,2149579803,2147879414,2147660662,2147646400,2148955062,2147266541,2187,2,15,42705
1356216419,5810,140.8200073242187500,20.0823993682861330,35.0740013122558600,217.8533935546875000,165.0332946777343800,20.0864295959472660,30.7954292297363280,56,103,87,80,64,15111,2148026880,2148420827,2149990253,2147884416,2147699062,2147771867,2149152512,2147282980,3072,2,16,5594
1356216528,5810,136.8600006103515600,20.5196990966796880,35.1367988586425800,219.2740020751953000,150.5381011962890600,20.5300407409667970,30.5292301177978500,60,103,89,80,62,15109,2148157275,2148730514,2150576749,2147890432,2147760347,2147970048,2149462582,2147308516,2917,2,16,8246
1356216628,5811,132.4100036621093800,20.6298999786376950,35.1566009521484400,222.0803070068359400,147.5236053466797000,20.6223506927490230,30.3457298278808600,59,104,89,81,64,15109,2148177965,2148669074,2150347108,2147894235,2147765924,2147938194,2149339428,2147297033,2576,2,15,59199
1356216693,5805,128.2700042724609400,20.7313003540039060,35.1637001037597660,222.3531036376953000,144.2996063232422000,20.7210903167724600,30.2894592285156250,59,108,87,80,64,15108,2148295122,2148871808,2150666331,2147895753,2147818541,2148054226,2149485650,2147310500,2278,2,15,7989
1356216758,5809,124.0000000000000000,20.7935009002685550,35.1521987915039060,222.0608978271484400,142.6143951416015600,20.7727108001709000,30.2821407318115230,67,108,89,81,63,15100,2148520091,2149323017,2151463936,2147904969,2147919131,2148321344,2149877046,2147342729,2287,2,16,3039
1356216823,5807,120.1399993896484400,20.7331008911132800,35.1092987060546900,216.9355010986328000,143.9004974365234400,20.7333106994628900,30.5623397827148440,69,111,86,80,62,15096,2148966299,2150225033,2153121170,2147928091,2148101906,2148839378,2150667830,2147398692,2004,2,16,20221
1356216888,5806,116.6500015258789000,20.8600006103515620,35.1222991943359400,214.8065948486328000,139.6622009277343800,20.8631591796875000,30.6176204681396500,73,112,94,80,63,15094,2149218605,2150611904,2153733403,2147943122,2148201334,2149039698,2150950628,2147424832,1960,2,15,25278
1356216978,5807,113.0899963378906200,21.1580009460449220,35.1587982177734400,218.6445007324218800,130.6338043212890600,21.1399002075195300,30.2987499237060550,91,115,90,82,64,15081,2149541339,2151107062,2154575661,2147956955,2148316928,2149267154,2151266733,2147452672,714,2,15,32600
1356217120,5808,109.1100006103515600,21.4192008972167970,35.1777992248535160,224.4689025878906200,121.9473037719726600,21.4063606262207030,29.8910102844238280,106,117,90,82,61,15060,2150053613,2151715227,2155319195,2147979830,2148497316,2149470921,2151494043,2147476352,2913,2,16,41837
1356217286,5808,104.8000030517578100,21.8922004699707030,35.1922988891601560,228.7906951904297000,106.9558029174804700,21.8667201995849600,29.4850807189941400,117,117,89,81,62,15045,2151116242,2153137782,2157284772,2148019209,2148871158,2150010395,2152122907,2147542400,23,2,15,10514
1356217384,5818,101.0500030517578100,22.0783004760742200,35.1635017395019500,233.2857055664062500,100.3619995117187500,22.0694293975830080,29.1858692169189450,131,119,89,83,61,15027,2151969371,2154250368,2158712146,2148059712,2149161435,2150424073,2152619584,2147596059,2671,2,16,47841
1356217449,5809,98.7600021362304700,22.1728992462158200,35.1601982116699200,234.8838043212890600,98.0463333129882800,22.1406497955322270,29.0812797546386720,130,117,88,82,62,15025,2152578660,2155049892,2159719817,2148091026,2149384265,2150723318,2152974171,2147634852,2310,2,15,35413
1356217504,5810,97.1500015258789000,22.2266998291015620,35.1584014892578100,235.9725036621093800,95.7133178710937500,22.2124195098876950,29.0008296966552730,127,117,90,82,61,15027,2153391405,2156186678,2161377728,2148139876,2149640886,2151126912,2153508013,2147688594,2704,2,16,17584
1356217582,5809,94.6200027465820300,22.3661003112792970,35.1594009399414060,237.7180938720703000,90.8159027099609400,22.3631401062011720,28.8578701019287100,125,116,91,82,62,15028,2154679314,2157729014,2163258724,2148202898,2150097508,2151729499,2154188214,2147764489,3492,1,16,4783
1356217637,5810,92.7099990844726600,22.4699993133544920,35.1599006652832000,238.9517059326172000,87.7544403076171900,22.4574108123779300,28.7627296447753900,128,117,92,82,61,15020,2155543177,2158746742,2164451629,2148231140,2150429705,2152160201,2154672475,2147811145,904,2,15,14346
1356217692,5809,91.1100006103515600,22.5948009490966800,35.1624984741210940,239.6560058593750000,83.7337875366211000,22.5812606811523440,28.6797199249267580,123,117,89,83,61,15021,2156331181,2159569398,2165239798,2148268251,2150682660,2152404288,2154871113,2147846098,3106,2,16,23683
1356217769,5809,89.2500000000000000,22.7604007720947270,35.1587982177734400,240.1865997314453000,77.8525009155273400,22.7625293731689450,28.5815391540527340,117,117,90,82,61,15019,2158019867,2161561517,2167583314,2148339968,2151305005,2153176585,2155701842,2147934546,3090,2,16,62153
1356217892,5807,87.1399993896484400,23.0305995941162100,35.1562995910644500,242.0670928955078000,70.0589370727539000,23.0029602050781250,28.3990592956542970,103,119,91,82,60,15017,2159835172,2163379922,2169173833,2148403565,2152090340,2154012955,2156455588,2148022061,2865,2,16,22212
1356217969,5810,85.0699996948242200,23.1000003814697270,35.1571998596191400,242.9044036865234400,67.5718231201171900,23.0797290802001950,28.3305397033691400,104,118,89,82,61,15008,2162666038,2166433069,2172363209,2148535140,2153293641,2155439616,2157846244,2148176886,39,2,16,30339
1356218035,5806,83.6500015258789000,24.4727993011474600,35.2701988220214840,238.5587005615234400,27.3156700134277340,24.3262901306152340,28.0244598388671880,107,119,91,83,59,14992,2163546605,2167609398,2173544201,2148574226,2153847149,2156019190,2158277595,2148230390,1176,1,16,35723
1356218290,5809,81.2200012207031200,24.7520999908447270,35.3054008483886700,236.4886932373047000,14.4200296401977540,24.7273197174072270,27.9585399627685550,83,117,92,83,57,15017,2165317988,2169625289,2175782336,2148710153,2155048210,2157400173,2159526628,2148367405,959,2,15,21661
1356218378,5808,79.3799972534179700,24.7696990966796880,35.3098983764648440,236.2021942138672000,13.2681798934936520,24.7631797790527340,27.9572105407714840,80,119,90,83,58,15025,2166921627,2171530770,2178125211,2148836608,2156069568,2158638793,2160756745,2148495094,712,2,16,9056
1356218511,5807,76.4100036621093800,24.7866992950439450,35.3114013671875000,236.3386993408203000,12.6678695678710940,24.7818794250488280,27.9435901641845700,75,118,89,83,59,15009,2168144493,2172705014,2179248457,2149004352,2157896402,2160450925,2162153097,2148635364,3528,1,16,34778
1356218566,5807,73.9899978637695300,24.8043994903564450,35.3148994445800800,236.3311004638672000,12.0190696716308600,24.8020801544189450,27.9359092712402340,72,117,91,83,58,15015,2171150372,2176388361,2183714916,2149291209,2160561618,2163533074,2165005147,2148926317,43,2,15,13069
1356218620,5808,71.4300003051757800,24.8174991607666000,35.3157997131347660,236.3919067382812500,11.5326404571533200,24.8172302246093750,27.9272193908691400,73,117,90,83,57,15015,2173732772,2179280621,2186922441,2149655725,2163155776,2166256054,2167295186,2149176749,91,2,15,62182
1356218674,5809,68.8799972534179700,24.8220996856689450,35.3162994384765600,236.4317016601562500,11.4337997436523440,24.8203105926513670,27.9241504669189450,69,117,92,84,59,15014,2177650934,2183918912,2192343094,2150138770,2166333348,2169795721,2170416228,2149512539,130,2,16,35604
1356218729,5808,66.3300018310546900,24.8218002319335940,35.3162994384765600,236.5704956054687500,11.4283895492553710,24.8204803466796880,27.9178504943847660,70,117,92,84,56,15008,2180108900,2186940297,2196047360,2150510345,2169270930,2173147894,2173439908,2149815908,124,2,16,1319
1356218784,5808,63.6899986267089840,24.8213996887207030,35.3162002563476560,236.5713958740234400,11.4325199127197270,24.8203506469726560,27.9178504943847660,69,118,88,83,59,15010,2181871177,2188568795,2197395200,2150834395,2171797074,2175685193,2175416484,2150041517,84,1,15,18567
1356218841,5811,60.8699989318847660,24.8206005096435550,35.3166999816894500,236.7675933837890600,11.4289798736572270,24.8204593658447270,27.9088401794433600,69,118,92,84,57,15004,2186648256,2194101979,2203815862,2151691894,2175691574,2179824960,2178889270,2150480384,9,2,16,9278
1356218896,5807,58.3499984741210940,24.8206005096435550,35.3163986206054700,236.8374023437500000,11.4100999832153320,24.8210506439209000,27.9054298400878900,68,117,92,84,56,15008,2190296493,2198213037,2208381330,2152428388,2179502098,2183944932,2182416128,2150904713,3444,1,17,46082
1356218951,5806,55.9700012207031250,24.8192005157470700,35.3171005249023440,236.9192962646484400,11.4369497299194340,24.8202095031738280,27.9021797180175780,66,116,92,84,57,15006,2194918774,2203635227,2214670820,2153561316,2183341229,2188060214,2185943780,2151367497,3196,1,16,42248
1356219006,5807,53.7099990844726560,24.8190002441406250,35.3162994384765600,237.0507965087890600,11.4387197494506840,24.8201599121093750,27.8961696624755860,69,118,92,83,58,15003,2198190473,2207301970,2218645933,2154168192,2186853312,2191824896,2189089590,2151800164,3113,1,17,50176
1356219061,5810,51.4099998474121100,24.8190002441406250,35.3162994384765600,236.9732971191406200,11.4228801727294920,24.8206501007080080,27.8993797302246100,66,117,90,83,58,15004,2203844352,2213591661,2225660891,2155975972,2191355602,2196408512,2192826843,2152455113,3120,1,16,45511
1356219116,5806,48.9700012207031250,24.8190994262695300,35.3161010742187500,237.0876007080078000,11.4122600555419920,24.8209800720214840,27.8942298889160160,66,116,93,83,57,15005,2210519286,2221099949,2234247186,2157491072,2196515090,2202112630,2197800192,2153114724,3276,1,16,19936
1356219173,5809,46.3400001525878900,24.8185005187988280,35.3162994384765600,237.1508941650390600,11.3687896728515620,24.8223400115966800,27.8908195495605470,66,116,92,83,59,15002,2214435958,2224864576,2237618468,2159144941,2202580498,2208457115,2203034971,2154011520,3469,1,16,42762
1356219228,5808,43.6699981689453100,24.8201007843017580,35.3158988952636700,237.2100982666015600,11.3432197570800780,24.8231296539306640,27.8877696990966800,64,117,88,83,57,15000,2222815661,2234138258,2247972123,2162023524,2209729901,2215742445,2208946934,2155187117,36,2,16,12328
1356219283,5807,40.9399986267089840,24.8185997009277340,35.3165016174316400,237.4654998779297000,11.3446998596191400,24.8230895996093750,27.8763294219970700,64,115,91,83,58,15002,2225978331,2236205110,2248800694,2165074075,2214945563,2220590134,2212506642,2156109001,3509,1,15,55672
1356219338,5808,38.0900001525878900,24.8208999633789060,35.3158988952636700,237.3289947509765600,11.2727098464965820,24.8253307342529300,27.8816795349121100,64,116,91,86,55,14998,2243081133,2256544329,2272923053,2171055789,2226240512,2232692123,2222797622,2158096064,55,1,16,13015
1356219393,5813,35.2999992370605500,24.8213996887207030,35.3165016174316400,237.5532989501953000,11.1957998275756840,24.8277301788330080,27.8704490661621100,63,116,93,82,56,15000,2247661184,2260159259,2275469302,2174458166,2233177261,2239613476,2228263012,2159445485,48,1,14,8905
1356219448,5811,32.5000000000000000,24.8218994140625000,35.3161010742187500,237.3901062011718800,11.1587200164794920,24.8288803100585940,27.8774299621582030,61,116,89,83,58,14998,2255291885,2267597266,2282938084,2178991972,2239379209,2245094390,2231968640,2160686217,34,2,16,14983
1356219505,5809,29.6200008392334000,24.8267002105712900,35.3160018920898440,237.6251068115234400,11.0063800811767580,24.8336296081542970,27.8650093078613280,60,115,90,84,58,15003,2272158912,2286722852,2305056950,2190424420,2251806601,2257742793,2242323584,2163854491,3315,1,16,22691